Wind_Speed
29 29 28 28 27 25 25 25 25 24 22 23 24 25 25 25 24 24 23 23 23 21 21 22 22 22 20 20 19 19 19 18 18 17 16 16 18 19 20 20 19 19 19 19 19 19 19 20 21 22 23 23 23 24 24 23 23 23 24 24 23 22 23 22 20 20 22 21 19 19 19 19 20 20 20 21 21 20 19 18 18 17 17 18 18
29 29 29 30 29 27 27 26 25 23 22 23 24 24 25 25 25 25 24 24 24 23 22 22 22 21 20 20 20 19 19 19 18 18 18 19 19 20 20 20 19 19 20 20 19 19 19 20 20 21 21 22 22 22 22 21 20 20 20 21 21 20 20 20 18 18 20 19 16 16 16 16 17 17 17 18 19 18 17 16 16 16 15 16 16
30 30 31 31 29 29 30 27 25 24 24 24 24 24 25 26 26 26 25 25 24 23 22 22 21 21 21 22 22 21 20 20 20 19 20 20 20 20 20 20 19 19 20 20 20 20 21 21 20 20 20 21 21 20 20 20 19 18 18 18 18 18 18 17 17 17 18 17 15 15 15 14 15 15 16 16 17 17 16 15 15 15 15 14 15
31 31 31 32 30 31 31 28 26 26 25 25 26 26 27 27 28 29 26 25 25 23 22 22 21 21 23 23 22 21 20 20 20 20 21 21 21 21 20 19 19 19 19 20 20 21 22 21 21 20 20 20 20 20 19 18 18 18 17 16 17 17 16 16 16 16 16 16 15 14 14 14 14 14 15 15 15 15 15 15 14 14 14 14 14
32 31 32 33 32 31 31 30 28 27 28 28 28 29 29 29 30 30 25 23 25 24 22 21 22 23 23 22 21 20 19 19 20 21 23 23 22 21 19 19 19 20 20 20 21 21 21 20 20 19 20 20 20 19 18 17 17 16 16 16 15 15 15 15 15 15 16 15 15 13 13 14 13 13 14 14 13 13 13 14 14 14 14 14 14
33 33 33 33 32 31 31 31 30 29 30 30 30 31 32 30 29 28 25 24 25 23 21 22 24 25 23 21 21 20 19 20 22 23 24 23 22 21 21 21 21 21 20 20 21 20 20 19 19 20 20 20 19 18 17 16 16 16 15 15 15 14 14 14 15 15 15 15 14 13 13 13 13 13 13 14 14 14 14 15 15 16 16 17 17
34 33 33 33 33 32 31 31 32 32 31 32 32 33 32 28 27 28 25 24 25 24 25 27 27 25 23 22 22 21 22 23 23 24 23 21 21 21 21 22 22 20 20 20 20 19 19 19 19 20 21 20 18 17 17 16 15 15 15 15 14 14 14 14 14 15 15 15 14 13 13 14 14 15 15 16 16 16 17 18 18 18 19 19 20
35 33 32 34 33 32 31 32 34 35 34 33 34 34 32 29 28 27 25 25 28 29 29 29 28 26 25 24 23 23 24 25 24 23 22 20 20 20 21 21 20 19 20 20 20 19 19 19 19 20 20 19 17 16 15 15 15 14 14 13 13 13 13 13 13 14 15 15 15 15 16 16 17 18 18 19 19 19 19 20 20 20 20 20 21
34 33 33 35 34 32 33 34 37 38 36 34 33 34 32 29 28 26 25 27 31 31 30 29 28 27 26 25 25 24 25 25 24 24 23 22 22 21 20 20 20 20 21 21 20 20 20 19 18 18 18 17 16 15 14 14 13 13 13 12 13 14 14 14 15 15 16 17 18 18 19 19 19 20 20 20 20 21 20 20 20 20 20 20 20
32 32 34 35 35 35 36 37 38 38 36 33 33 33 31 28 26 26 27 29 30 29 29 29 29 27 25 25 26 26 25 24 24 24 24 24 23 22 20 19 20 20 21 21 20 20 20 19 18 17 17 16 15 14 13 13 12 13 13 14 15 15 16 16 16 17 17 18 19 19 19 20 20 20 20 20 20 21 21 21 21 21 21 22 21
33 33 32 34 35 37 38 39 37 36 35 34 32 31 30 29 28 28 29 29 29 29 27 27 27 27 25 24 24 25 25 24 24 24 25 24 23 21 19 19 19 20 21 20 20 21 20 19 18 17 16 15 14 13 13 13 14 14 15 16 16 16 16 16 16 17 17 17 18 19 19 19 20 20 21 22 22 22 23 23 23 23 23 24 24
33 33 33 35 38 39 38 36 34 33 33 33 32 31 31 31 30 28 26 25 26 27 25 23 23 24 23 22 23 23 23 23 23 24 24 24 22 20 19 19 19 20 20 20 20 20 19 18 18 17 15 14 13 13 14 14 14 15 15 15 15 15 16 16 17 17 17 18 19 20 21 22 22 22 23 24 24 24 25 25 25 25 25 25 26
33 33 34 36 38 38 36 35 32 31 31 32 33 34 34 33 31 28 25 24 24 24 24 23 22 22 22 22 22 22 22 22 23 23 22 22 21 20 19 19 19 20 20 20 20 20 18 18 17 16 15 14 14 14 14 14 14 14 15 16 16 16 17 18 19 19 19 20 21 22 23 24 24 24 24 25 25 26 26 26 26 27 27 27 28
32 32 35 38 37 35 33 31 29 30 32 34 36 36 36 34 30 27 26 25 24 24 24 24 24 23 23 22 22 21 22 23 22 21 21 20 20 20 19 19 19 20 20 20 20 19 18 17 17 16 15 15 15 14 14 14 14 15 17 17 18 18 20 21 22 22 22 22 24 25 25 25 26 26 25 26 26 27 27 28 29 30 30 31 31
28 28 30 33 33 30 27 26 28 32 36 38 37 36 35 33 29 27 27 27 26 26 26 27 26 25 25 24 22 22 22 22 21 20 20 20 20 20 19 19 20 20 20 20 19 18 17 17 17 16 16 16 15 15 16 16 16 17 19 20 21 22 23 24 25 25 25 25 25 26 26 26 26 26 27 27 28 29 30 31 32 33 34 34 34
24 23 23 24 23 23 24 27 31 33 33 32 33 33 33 31 28 27 27 27 27 28 28 27 26 25 24 24 23 22 21 20 20 20 20 20 20 19 18 19 20 20 20 20 19 18 17 17 17 17 16 16 17 17 18 18 19 20 21 23 24 25 26 26 27 27 27 27 27 27 27 27 28 28 29 30 31 32 33 34 35 36 36 37 37
21 22 22 23 23 23 25 28 31 31 29 27 28 30 31 30 27 24 23 23 23 24 26 26 25 23 22 22 21 20 19 19 19 20 20 20 18 18 18 19 20 20 20 19 19 18 18 18 17 17 17 18 19 20 21 21 22 22 23 24 26 27 27 28 28 28 28 28 28 28 29 29 31 32 33 34 35 35 36 37 37 38 38 39 39
19 20 23 28 29 29 29 29 28 29 29 27 26 27 29 28 25 23 22 21 20 20 22 23 23 22 20 20 19 18 18 19 19 20 20 18 17 17 18 19 20 20 21 20 18 18 18 18 18 19 19 20 21 22 23 24 24 24 25 25 26 27 28 28 28 28 28 29 30 30 31 32 33 34 35 36 37 37 38 38 39 39 40 40 40
19 20 23 27 29 30 30 27 25 25 26 27 26 26 26 25 23 22 21 20 20 21 22 22 22 21 20 19 18 18 18 18 19 19 19 17 17 17 19 20 21 22 21 20 19 19 19 19 19 20 21 22 23 24 25 25 25 25 26 26 27 27 27 27 28 28 30 31 31 32 33 34 35 36 37 38 38 38 39 39 39 40 40 40 40
20 21 21 21 23 25 26 24 24 24 25 25 25 25 26 25 22 20 20 20 21 22 23 22 21 21 20 19 17 18 18 19 19 19 18 18 18 19 20 21 22 22 21 20 19 19 20 20 21 22 22 23 24 24 25 25 25 26 26 27 28 28 28 29 30 30 31 32 33 33 35 36 37 37 38 38 38 38 39 39 40 40 41 41 41
16 18 20 20 20 22 23 23 24 25 26 26 24 23 23 23 22 20 21 22 23 22 21 19 18 19 19 18 17 18 19 19 19 19 18 18 19 20 20 21 21 21 21 20 20 21 21 22 23 23 23 23 24 25 25 25 26 26 27 28 29 30 30 31 31 32 33 33 34 35 36 37 38 38 38 38 38 39 39 40 41 41 41 42 42
11 13 17 21 23 23 24 25 25 25 25 23 22 22 22 23 23 22 22 24 23 21 20 19 19 19 18 17 17 18 18 19 19 19 19 19 20 20 20 20 21 22 22 22 22 22 23 23 24 24 24 24 24 25 26 26 26 27 29 30 31 31 31 32 32 33 34 34 35 36 36 37 37 37 38 38 39 40 40 41 42 42 42 43 43
11 11 15 20 23 24 24 24 25 24 22 20 20 21 22 23 22 20 21 22 21 19 19 20 20 18 17 16 17 18 18 18 19 19 20 20 21 20 20 20 21 23 23 23 23 23 24 24 24 24 24 24 25 26 26 27 28 29 30 31 32 32 33 33 34 34 34 35 35 36 36 36 37 38 38 39 39 39 40 41 42 43 44 45 45
11 13 15 19 22 23 21 20 21 22 21 18 18 19 20 20 19 18 19 20 19 18 19 19 18 17 15 16 17 18 19 19 20 21 22 22 22 22 22 22 23 24 24 24 24 24 24 24 24 24 24 25 25 27 28 28 29 31 32 33 33 33 34 34 35 34 34 34 35 36 36 37 38 39 39 40 40 40 41 42 43 44 46 47 48
10 12 15 18 20 21 19 17 17 18 18 17 16 17 18 18 17 17 17 17 18 19 18 17 16 15 15 15 17 18 19 20 21 22 23 24 24 24 24 23 24 24 24 24 24 25 25 25 25 24 25 26 26 27 28 29 30 32 33 34 35 35 35 35 35 35 35 35 36 36 37 38 39 39 40 40 41 42 43 44 45 46 48 49 50
8 10 12 14 15 16 16 15 15 15 15 14 14 15 16 16 15 15 15 15 15 16 15 14 14 14 15 16 18 19 20 21 22 23 24 25 26 26 25 25 25 25 25 25 25 25 26 26 25 25 26 27 27 28 29 30 31 33 34 35 35 36 36 35 35 35 36 36 37 38 39 39 40 40 41 41 42 43 45 46 47 48 49 50 50
8 9 11 12 14 15 16 16 16 16 15 14 14 13 14 15 14 14 15 15 14 14 14 14 13 14 15 16 17 19 21 22 22 23 24 25 26 25 25 26 26 26 26 25 26 26 27 26 26 26 26 27 28 29 30 31 32 33 34 35 35 35 35 35 35 36 37 37 38 39 40 40 41 42 42 43 44 45 47 48 48 48 49 49 49
8 9 10 11 13 14 14 14 14 14 15 15 15 14 15 15 14 13 13 14 14 14 15 15 15 15 16 17 18 20 21 22 23 24 24 24 25 25 26 26 26 26 26 26 26 27 27 27 27 27 27 28 30 31 32 33 33 34 34 35 35 35 35 35 35 36 37 37 38 39 40 41 42 43 44 45 46 47 47 47 47 47 47 47 48
6 7 8 9 9 9 9 9 10 14 16 17 17 17 17 16 14 13 12 13 14 15 15 16 16 17 17 18 20 21 22 23 24 24 24 24 25 26 27 27 27 27 27 27 27 28 28 28 28 29 30 32 33 33 33 34 35 35 35 35 35 35 35 35 35 36 36 37 38 39 41 42 43 45 46 46 46 46 46 46 46 47 47 47 47
4 5 8 9 10 10 9 9 11 13 13 14 15 16 17 16 13 12 13 14 15 16 16 17 17 17 19 21 22 23 23 24 24 24 24 26 27 27 27 27 27 27 27 28 28 28 29 30 30 32 33 34 34 34 34 34 35 35 35 34 35 35 36 36 36 36 37 38 39 41 42 43 44 45 45 46 46 46 46 46 46 46 46 47 48
3 4 7 8 9 10 10 10 11 9 5 8 11 14 14 13 12 13 15 16 17 17 18 19 19 20 21 22 23 23 23 23 24 25 26 27 27 27 27 27 27 27 28 28 29 30 30 31 32 33 34 34 34 34 34 34 35 35 34 34 35 35 36 36 37 38 39 40 41 42 43 44 44 44 44 45 45 45 45 45 46 46 47 48 48
1 3 6 7 8 8 7 6 7 5 3 5 9 12 12 11 11 13 15 16 18 20 20 20 20 20 20 21 23 23 23 24 25 26 27 28 28 28 27 27 28 28 28 29 30 31 31 32 33 33 33 33 33 33 34 34 34 34 34 34 35 35 36 37 38 39 41 42 43 43 43 44 43 43 43 44 44 44 45 45 46 47 48 49 49
3 4 5 7 7 7 6 6 5 4 4 5 7 12 13 11 10 10 11 13 16 18 19 19 20 20 20 21 23 24 25 25 26 27 28 29 28 28 28 28 28 28 29 30 31 31 31 31 32 32 32 32 33 33 33 34 34 35 35 35 35 36 36 38 39 40 42 43 44 44 44 44 44 44 44 44 45 45 46 47 47 48 49 49 50
7 7 8 8 9 9 8 7 7 7 7 7 8 11 14 13 11 10 10 11 14 18 20 21 22 22 22 23 24 25 26 26 27 28 28 28 28 28 28 28 29 29 30 30 31 30 30 30 30 31 32 32 32 32 33 34 34 34 34 35 36 37 38 39 40 41 42 43 44 44 44 44 44 44 45 45 46 47 48 48 49 49 50 50 51
9 10 10 11 12 12 11 10 9 9 9 9 9 12 14 15 13 12 12 13 15 19 21 23 23 23 23 24 25 25 26 27 27 28 28 28 28 28 28 29 30 31 31 31 30 29 29 29 30 31 31 32 32 33 33 33 33 34 34 36 37 38 39 40 40 41 42 43 43 44 44 44 45 45 46 47 47 48 48 49 49 50 51 52 52
11 11 12 12 13 14 14 15 14 14 13 12 11 13 15 16 16 16 15 15 16 18 20 22 22 22 22 23 25 26 27 27 28 28 28 28 28 28 29 30 31 32 31 30 30 30 30 30 30 30 31 32 32 33 33 33 34 34 35 37 38 39 40 41 42 42 42 42 42 43 43 44 45 46 47 47 48 48 49 50 51 52 52 52 52
13 13 12 12 13 15 17 18 18 18 17 15 13 14 16 18 18 17 16 15 16 17 19 20 20 20 21 23 24 25 26 27 27 28 28 28 28 29 30 31 31 31 30 29 30 32 32 31 31 31 31 32 33 33 33 33 34 35 36 37 39 40 41 42 42 43 42 42 42 43 43 44 46 46 47 48 48 49 50 51 51 52 52 52 52
17 16 15 14 15 17 18 19 19 19 17 17 16 16 16 16 17 16 16 16 16 17 18 19 19 20 20 21 22 24 25 26 27 27 28 28 27 28 28 29 30 29 29 29 30 31 30 30 30 31 31 31 32 32 33 34 35 36 37 39 40 41 42 42 42 43 43 43 43 44 45 45 46 47 48 49 49 50 50 51 51 52 52 52 53
20 19 18 18 19 20 21 20 20 19 18 19 19 17 14 14 15 15 16 16 17 17 17 18 18 18 18 19 20 22 22 23 23 24 24 25 25 25 26 28 30 29 28 28 28 28 28 29 29 30 30 31 32 33 34 35 36 37 38 39 40 41 42 42 42 43 44 44 45 46 47 47 48 48 49 50 50 51 51 52 52 53 53 54 55
19 18 18 19 20 21 22 22 21 21 20 20 19 18 17 16 17 16 16 17 17 17 16 17 18 18 18 19 20 20 20 19 20 21 23 24 24 24 26 27 28 27 26 26 26 27 28 29 29 29 30 31 32 33 34 35 36 37 38 39 40 41 42 42 43 44 45 46 47 48 48 49 49 49 50 50 51 52 52 52 52 53 53 54 56
17 16 18 20 21 21 21 22 22 22 20 19 18 19 20 19 17 17 17 16 16 16 18 19 20 21 21 21 21 20 19 19 20 21 22 22 22 22 24 24 25 24 24 25 26 27 28 29 29 29 30 31 32 33 34 35 36 37 38 39 40 42 43 44 44 46 47 47 48 48 48 48 48 49 50 50 51 51 51 51 51 52 54 56 58
17 17 17 19 20 20 20 20 21 20 19 18 18 19 20 20 20 20 19 17 16 17 18 21 22 23 23 21 20 19 19 20 21 21 21 19 18 19 21 22 22 23 24 25 26 27 28 28 29 29 30 31 32 33 34 35 36 37 39 40 42 43 44 45 46 47 47 47 47 47 47 48 48 49 50 50 50 50 50 51 52 54 56 58 60
17 17 17 19 20 20 19 18 19 19 19 19 18 17 18 21 24 24 21 19 19 19 19 20 21 22 21 19 18 19 20 21 21 20 20 19 18 18 19 21 22 23 24 25 26 26 27 27 28 29 30 31 32 33 34 35 37 38 40 41 42 44 45 46 46 47 46 46 46 47 47 48 49 49 50 50 50 51 51 52 54 57 59 61 62
15 16 18 20 20 19 17 16 16 17 18 19 19 19 21 25 26 24 21 20 20 20 20 19 19 19 17 16 17 21 22 22 20 20 20 20 19 19 19 20 22 23 24 24 25 26 27 27 28 29 30 31 32 33 35 36 38 39 40 41 42 44 45 45 45 45 45 45 45 46 47 48 49 50 50 51 51 52 53 54 57 59 61 63 64
15 17 19 18 17 16 17 16 16 16 18 19 20 22 24 26 26 24 21 21 21 20 19 18 17 16 15 16 19 22 23 22 20 19 20 20 20 20 20 21 22 22 23 23 24 25 27 28 29 30 31 32 33 35 36 37 38 39 40 41 42 43 44 44 44 44 44 44 46 47 48 49 50 50 51 51 51 52 54 56 59 61 62 63 64
17 17 17 16 16 17 17 17 16 17 19 22 24 24 25 26 26 24 22 22 22 20 19 18 17 16 18 21 23 23 22 21 19 19 19 19 20 20 21 21 21 21 22 23 24 26 27 28 30 31 32 34 35 36 37 38 38 39 40 42 43 44 44 44 44 44 44 45 47 48 49 50 51 51 51 51 52 53 55 58 60 62 63 64 64
18 17 17 18 19 18 17 17 18 20 21 24 25 25 27 29 28 25 22 21 21 20 19 19 19 20 22 24 25 23 22 20 19 19 19 19 19 20 20 20 20 21 22 24 25 27 28 30 31 33 34 35 35 36 37 37 38 40 41 42 44 44 45 44 44 44 46 47 48 50 50 51 51 51 51 52 53 55 57 60 61 62 63 63 63
17 18 18 18 19 19 19 21 21 22 23 26 26 27 30 31 29 24 20 20 21 20 20 20 21 22 24 25 25 24 22 19 17 17 19 19 19 20 19 19 20 22 23 24 26 27 29 30 32 33 33 34 35 36 37 38 39 41 42 43 45 45 45 45 45 45 47 48 49 50 50 51 51 51 51 52 54 56 58 60 62 62 62 62 62
15 16 17 17 18 20 23 24 23 22 24 27 28 28 29 28 25 22 21 20 20 20 20 22 23 23 24 25 26 25 22 18 16 17 19 19 19 19 20 20 22 23 24 25 27 28 29 30 31 32 33 34 35 36 37 39 40 42 43 44 45 45 45 45 45 46 48 49 50 50 50 50 50 50 51 52 54 57 59 61 62 62 61 60 59
15 16 16 17 20 22 24 25 23 21 22 25 25 25 25 23 20 19 20 20 21 22 23 22 22 23 25 26 25 22 20 18 17 18 18 18 18 19 20 21 23 24 25 26 27 28 29 30 31 32 33 34 35 37 38 40 41 43 44 45 46 45 45 45 46 47 48 49 50 50 50 50 50 50 51 53 55 58 59 60 61 60 59 58 57
18 19 19 20 23 25 25 23 20 18 19 22 25 24 22 20 18 19 21 22 24 25 24 23 24 26 28 26 22 18 17 16 17 17 17 17 18 20 21 22 23 25 26 27 28 29 29 30 31 32 34 35 37 38 40 41 43 44 45 45 45 45 45 45 46 48 49 49 49 49 49 49 49 50 51 53 56 58 59 60 59 59 58 57 55
Wind_Direction
234 234 230 227 226 225 226 228 230 231 231 234 236 238 240 239 236 234 232 231 232 235 239 241 240 238 238 239 241 244 247 248 248 251 253 256 258 260 262 265 267 271 275 278 281 282 285 288 291 293 295 295 296 295 295 294 292 289 288 288 288 288 288 286 284 281 280 283 285 285 285 285 285 289 292 294 297 300 302 302 302 301 300 298 297
236 235 233 232 229 228 230 233 235 235 232 232 235 238 239 239 236 233 230 230 231 232 233 235 237 237 238 239 241 243 245 247 249 250 249 249 251 256 263 268 271 275 278 280 282 285 290 293 295 298 300 301 301 300 299 297 294 291 289 289 288 287 285 284 283 281 282 285 287 285 284 285 286 288 290 293 297 301 302 303 304 306 306 306 305
234 234 236 236 232 229 230 234 238 239 234 232 233 235 236 236 235 234 232 231 232 232 233 232 231 234 237 240 241 240 242 245 250 253 252 252 256 260 265 268 271 274 278 283 288 293 296 297 298 300 301 301 300 300 300 299 296 293 290 288 287 285 283 282 281 281 283 286 287 288 288 288 288 289 290 293 297 300 302 305 307 308 309 309 309
231 230 233 236 233 230 229 230 235 238 236 233 231 233 235 233 233 233 232 232 234 233 234 233 230 231 235 239 242 242 243 246 250 252 254 256 258 262 266 269 272 276 281 285 289 292 294 295 298 300 300 299 298 298 298 297 294 292 290 287 286 284 283 283 283 282 283 285 286 288 291 293 293 292 292 293 296 299 303 305 306 307 306 305 305
228 228 229 233 233 231 229 228 232 235 235 234 232 233 234 232 233 236 234 233 236 235 235 236 235 234 234 237 242 245 245 245 246 248 251 254 259 264 268 272 275 279 283 286 288 290 292 294 296 296 296 296 295 294 294 294 293 292 290 288 287 287 287 287 286 286 285 286 288 290 294 296 296 295 295 295 297 300 302 303 303 303 302 300 300
227 226 228 231 232 231 229 228 229 232 233 233 233 234 234 231 234 239 238 235 240 242 240 240 240 238 236 237 239 243 245 245 245 247 250 254 260 264 267 272 278 281 283 286 289 290 290 291 291 291 291 291 291 291 292 293 293 291 290 289 288 289 290 290 289 288 289 290 292 294 295 293 293 294 295 296 298 299 299 298 298 298 298 298 298
227 225 226 230 231 231 231 230 229 230 232 232 233 234 233 231 232 236 235 234 241 244 240 240 242 242 239 239 239 240 243 245 247 251 254 256 259 261 265 271 276 279 282 285 285 285 284 285 287 288 289 289 290 291 291 290 288 289 289 289 289 289 289 290 290 290 290 292 293 294 293 291 291 292 292 293 294 293 293 292 292 293 294 295 295
228 224 224 229 230 230 233 233 231 230 230 231 233 234 233 231 231 233 233 232 235 238 238 240 244 243 242 244 246 245 246 248 251 256 259 259 258 260 264 268 273 278 281 281 280 280 282 284 286 287 287 288 289 289 288 286 285 286 287 287 287 287 287 288 289 289 289 290 291 291 290 290 290 291 292 292 291 290 289 290 291 292 292 292 293
227 224 224 227 229 230 232 234 233 232 231 231 233 234 233 231 231 231 232 233 235 238 239 242 245 246 247 252 254 253 252 253 254 257 260 260 260 262 265 268 273 277 279 279 280 282 284 286 287 285 284 284 284 284 284 284 283 284 285 286 286 287 287 288 289 290 290 291 291 291 291 290 290 290 290 290 290 291 291 292 293 293 292 292 292
222 222 225 226 227 228 229 231 233 233 233 234 235 236 237 237 238 238 237 237 239 242 243 245 247 249 252 255 256 254 252 254 256 257 259 260 261 264 268 271 273 275 276 278 280 282 284 285 284 281 279 278 278 279 280 282 283 284 287 288 289 289 291 292 293 293 294 294 293 292 291 291 291 291 291 291 292 293 293 293 292 292 291 291 291
217 216 221 225 227 228 228 228 231 233 234 235 236 238 240 241 242 244 245 244 243 244 247 249 248 248 250 252 252 250 251 255 258 257 258 260 262 265 269 270 271 273 275 277 278 279 279 279 278 277 275 274 275 277 280 282 286 289 291 292 293 295 296 297 296 296 296 295 294 292 292 293 293 293 294 294 294 294 293 292 292 291 291 292 292
216 213 218 224 226 226 225 226 228 230 232 234 234 235 238 240 240 243 245 244 242 243 247 249 247 245 245 245 246 248 251 256 258 257 257 259 261 263 265 266 270 273 275 276 276 275 275 274 273 273 272 272 274 277 281 285 289 292 292 292 293 296 296 295 295 296 298 297 295 294 294 295 295 294 295 294 294 294 293 293 293 293 293 293 294
220 215 215 219 224 226 224 225 227 228 231 233 233 233 236 238 239 239 240 240 239 241 245 246 244 242 241 244 248 251 252 254 255 255 256 258 259 260 262 267 272 274 274 274 272 270 271 271 270 270 270 272 276 279 283 286 289 290 289 290 293 295 295 295 295 297 298 298 296 295 295 295 295 295 295 295 295 295 295 295 295 295 295 296 296
228 227 220 217 221 225 227 228 230 231 232 232 229 230 233 236 239 240 240 240 240 241 243 242 242 242 244 248 250 249 249 250 250 250 252 254 256 258 262 267 270 271 271 270 268 268 268 268 268 269 271 274 277 280 282 285 287 289 290 293 296 297 296 296 297 298 298 297 296 296 295 295 296 296 296 295 296 296 297 297 298 297 297 298 298
233 239 232 224 223 226 231 233 229 228 230 231 229 229 231 235 239 241 241 241 241 241 242 242 242 243 246 247 246 245 245 245 245 247 250 252 253 256 261 264 266 268 268 266 265 266 266 266 266 269 273 275 278 280 283 285 288 290 292 294 295 295 295 296 297 298 299 299 298 297 296 296 296 296 297 297 297 298 299 299 298 298 298 298 298
229 231 234 236 235 235 236 233 227 225 227 229 229 230 231 233 236 238 238 239 239 239 240 241 241 241 242 243 243 242 242 242 244 248 250 251 253 256 260 264 265 266 264 263 263 264 263 263 265 269 272 275 277 280 282 283 285 287 289 291 292 293 295 296 298 299 300 300 299 298 298 298 299 299 299 300 300 300 300 299 299 299 299 298 298
230 226 226 230 232 233 230 227 224 224 225 226 225 225 227 229 231 235 237 236 236 235 235 235 236 237 238 240 241 241 242 244 246 248 250 252 254 257 262 265 266 263 261 260 260 261 262 264 266 268 271 273 275 278 279 281 284 286 288 290 291 293 295 298 300 301 302 302 301 301 300 301 301 301 302 302 302 302 301 301 301 300 300 299 299
234 229 224 222 225 229 230 229 227 225 226 227 225 224 226 228 231 236 238 235 232 232 232 230 230 232 234 235 236 239 243 245 246 248 251 253 256 259 263 263 261 259 258 258 259 261 262 265 267 269 271 273 275 278 281 284 286 288 290 291 292 294 296 299 301 302 302 302 301 301 301 301 302 302 302 302 302 302 302 302 301 301 299 298 297
236 233 228 225 225 228 231 231 229 227 227 228 228 227 228 229 233 236 237 234 232 231 230 229 226 225 225 228 232 237 241 245 247 250 253 255 256 258 258 257 256 256 258 259 260 262 263 265 266 268 270 274 277 281 284 286 288 290 291 292 293 295 296 298 299 300 301 301 301 301 302 302 302 303 303 303 303 303 302 302 301 300 298 297 296
240 241 238 232 226 227 229 228 226 224 225 227 230 231 230 229 231 235 238 239 237 232 230 227 223 222 223 226 230 236 240 244 247 250 252 253 253 253 252 252 255 258 260 261 261 262 263 264 267 269 273 277 281 283 285 287 289 291 292 293 294 296 297 298 300 301 301 301 302 303 303 303 303 303 302 302 302 302 301 301 300 299 298 297 296
247 251 250 245 238 235 232 230 229 224 222 225 230 233 231 229 230 233 238 241 238 232 229 226 222 223 226 228 230 235 240 243 245 247 248 249 250 250 250 252 255 259 261 262 262 263 265 267 271 275 278 281 282 284 285 288 290 291 293 294 296 297 299 301 302 302 302 303 303 304 303 302 302 302 302 301 301 301 301 301 300 299 298 296 295
246 253 251 247 243 239 236 238 239 231 224 226 229 230 229 227 225 225 230 233 230 224 225 226 224 225 229 231 232 236 239 241 243 244 245 247 248 249 251 253 256 259 261 262 263 266 269 272 275 278 280 281 283 285 287 290 292 293 295 296 297 299 301 302 302 302 303 303 303 302 301 300 300 301 301 301 301 302 301 300 299 298 296 295 295
241 248 248 244 240 240 243 246 242 232 227 227 228 228 228 225 219 217 223 230 228 224 223 222 223 229 235 235 235 237 237 238 240 241 242 245 247 250 252 254 256 258 260 263 266 269 272 275 277 280 281 282 284 286 289 292 294 295 296 297 299 301 302 302 302 302 302 302 301 300 300 301 301 301 301 301 301 300 299 298 297 296 296 295 295
246 250 248 243 241 246 250 246 237 232 233 232 228 226 225 220 215 215 221 227 230 231 230 227 229 239 241 237 237 238 237 237 238 238 240 244 247 250 253 256 258 259 262 265 269 272 275 277 279 280 282 283 286 289 293 295 297 297 298 299 300 300 301 300 300 300 300 300 300 300 301 302 302 301 300 300 299 298 297 297 296 296 296 296 296
258 259 253 247 249 253 250 240 231 231 233 231 226 222 221 218 217 219 222 223 224 228 234 237 241 246 245 241 240 240 238 238 238 239 242 246 250 253 256 259 261 263 265 269 272 274 276 277 278 280 282 284 288 292 295 297 298 299 299 299 300 300 300 300 300 300 301 301 302 302 302 301 300 300 300 299 299 298 298 298 297 297 297 296 296
271 277 270 263 261 256 247 239 237 237 237 235 230 224 221 221 222 223 224 225 226 231 239 245 247 248 247 246 245 244 242 241 240 242 247 252 254 257 260 262 265 267 269 272 274 276 277 278 279 282 285 288 291 294 296 297 297 297 298 298 299 300 300 300 301 302 303 303 303 303 302 301 301 300 300 300 299 299 299 299 298 297 296 295 295
274 289 286 279 272 263 253 248 246 247 249 248 242 231 219 215 218 220 221 224 228 233 240 243 242 243 245 247 247 244 241 241 242 246 251 254 257 259 262 266 268 270 272 274 276 277 279 281 283 286 288 290 293 295 295 295 295 295 296 297 298 298 299 300 302 303 304 304 303 302 302 301 301 301 301 301 300 300 299 298 297 296 296 296 296
274 288 292 288 281 273 261 249 247 254 256 251 243 232 219 212 212 212 213 218 222 227 231 234 235 237 242 246 245 242 240 242 247 251 254 255 258 261 264 267 269 270 273 275 277 279 281 284 286 288 290 292 294 295 295 294 295 295 296 296 297 297 298 299 300 301 301 301 300 300 300 300 301 301 301 301 300 299 298 297 297 297 297 297 297
294 310 321 319 308 293 274 263 272 275 264 251 241 231 221 214 211 208 208 213 218 223 228 233 237 241 245 247 247 245 245 249 253 256 257 258 260 262 265 267 270 272 275 278 280 283 286 288 290 292 293 294 295 295 295 295 295 296 296 296 296 297 298 299 300 300 300 299 299 300 301 302 302 302 301 301 300 299 299 299 299 299 300 299 299
340 344 348 345 337 327 316 313 315 301 268 243 235 228 222 220 219 217 219 222 223 227 231 236 241 244 246 247 246 245 248 252 255 256 257 259 261 262 265 268 272 276 279 282 285 287 289 290 292 294 295 295 295 295 295 294 294 295 295 296 297 299 300 301 301 301 301 301 302 303 303 303 302 302 302 301 302 302 301 301 301 301 301 301 300
341 342 346 348 345 342 339 335 334 327 279 234 229 226 227 232 236 234 233 230 229 232 234 236 240 243 244 244 243 243 247 251 254 256 257 259 261 264 267 271 274 278 281 283 285 288 289 292 293 294 294 294 293 293 293 293 293 294 296 298 300 300 301 302 303 303 304 304 304 304 303 303 303 303 303 303 303 303 303 303 302 302 301 301 300
271 317 331 335 337 340 339 332 331 335 307 252 236 226 229 244 250 242 235 231 231 234 235 233 234 239 244 244 243 245 250 253 254 255 257 260 263 266 269 272 275 277 280 283 285 289 291 293 293 293 292 292 292 293 294 295 296 298 300 302 302 303 303 304 305 305 305 305 304 304 304 304 305 305 305 304 304 304 304 304 303 303 302 302 302
264 283 301 311 316 321 320 312 304 290 275 265 244 230 235 252 262 251 235 227 225 226 226 227 231 239 247 249 249 251 254 254 254 255 257 260 263 266 269 272 274 277 280 284 288 291 292 292 291 290 290 291 293 295 297 298 300 302 303 304 304 305 305 305 305 306 306 306 306 307 307 307 307 307 307 307 307 307 306 306 306 305 305 305 304
281 278 278 283 290 294 294 291 283 271 262 255 244 237 239 247 257 261 250 235 228 227 230 235 241 247 252 254 254 256 257 256 257 258 259 261 263 266 269 272 275 278 282 286 289 289 289 289 289 290 292 294 296 298 299 300 302 303 304 304 305 305 305 306 306 307 308 308 308 309 309 309 310 310 310 310 310 309 309 308 308 308 307 307 307
280 277 277 279 282 283 283 281 278 271 264 252 238 233 233 236 244 254 255 248 243 241 243 247 250 251 253 255 256 257 258 259 260 261 262 264 266 268 270 273 276 280 284 286 286 285 285 287 291 293 295 297 298 299 301 302 303 304 304 304 305 306 307 308 308 309 310 310 310 310 310 311 311 312 311 311 311 310 310 310 310 310 309 309 308
278 280 283 285 283 282 283 283 278 271 267 262 249 238 236 241 248 255 257 257 253 249 248 250 251 252 253 254 255 256 257 259 261 262 264 266 268 270 272 275 278 281 285 286 284 282 284 289 294 296 297 298 300 301 303 304 304 304 305 305 306 307 308 309 310 311 311 311 311 311 312 312 312 312 312 312 312 312 312 312 311 310 310 309 308
270 274 279 282 283 282 281 281 277 269 263 261 256 248 246 249 253 258 262 264 261 257 254 253 253 253 253 254 255 257 258 260 262 264 265 267 269 272 274 276 278 282 286 286 283 282 286 292 297 298 299 300 302 303 303 304 304 305 305 307 308 309 311 312 313 313 312 312 313 313 313 313 313 313 313 313 313 313 312 312 311 310 310 310 311
259 261 264 269 277 281 280 279 273 263 259 261 259 253 252 255 257 261 267 268 266 263 261 257 254 254 256 260 262 263 263 263 263 264 265 267 270 273 275 278 281 284 287 286 284 285 290 295 297 298 300 302 302 302 303 303 304 306 308 310 312 313 314 314 313 313 313 314 314 314 314 314 315 315 315 314 314 313 313 313 313 313 314 314 314
256 260 264 271 279 283 284 279 267 256 261 269 261 246 247 260 265 266 269 269 268 267 262 257 254 255 261 268 270 268 268 268 267 267 269 271 274 278 281 283 284 286 287 287 289 292 295 296 298 300 301 301 301 302 303 305 307 310 313 314 315 314 313 313 313 314 314 315 316 317 317 317 317 316 316 315 315 316 316 316 317 316 316 315 314
267 274 278 280 282 283 284 279 266 258 265 272 260 247 253 267 269 268 270 270 267 262 256 253 255 260 265 271 273 273 273 275 275 274 275 278 282 286 286 285 285 286 288 291 293 296 297 298 299 300 300 300 301 303 306 309 312 314 314 313 312 312 312 313 314 316 317 318 319 319 319 318 318 318 318 318 318 318 318 318 317 316 315 314 313
279 283 280 277 277 279 281 278 270 264 263 262 255 253 256 260 263 267 270 269 263 255 248 247 252 256 259 264 270 275 279 280 279 277 278 280 283 284 282 281 283 287 291 294 296 297 298 298 299 299 300 302 304 307 310 312 313 313 312 311 312 313 314 316 318 319 320 320 319 319 319 318 318 318 318 319 318 318 317 316 315 315 314 314 314
274 274 274 272 273 276 277 274 270 266 260 254 253 252 250 253 264 272 271 267 264 258 249 245 246 249 253 260 269 278 283 282 280 279 280 280 280 279 280 282 286 290 294 295 296 296 296 297 298 299 302 305 308 310 312 312 312 312 312 313 314 316 318 319 320 320 320 319 318 318 318 318 318 319 318 318 317 317 316 316 315 315 316 316 316
269 272 273 271 271 273 272 270 270 269 262 255 253 247 240 247 262 271 271 268 269 265 257 251 248 248 252 261 274 282 282 277 275 276 279 281 281 282 285 288 292 294 295 294 294 294 295 297 299 303 306 309 310 311 311 311 312 313 314 316 318 319 320 320 319 318 318 317 317 318 318 318 318 318 318 318 318 317 317 317 318 318 319 319 319
276 276 271 267 266 268 267 267 268 265 256 251 253 252 246 247 255 263 268 271 271 268 262 255 250 249 253 262 272 275 273 271 272 277 281 284 285 288 291 293 294 294 293 292 293 295 298 301 305 307 309 309 310 310 312 313 315 316 317 318 319 318 318 317 317 316 316 316 317 318 319 319 319 319 319 319 319 319 319 319 320 321 321 321 320
273 269 265 264 266 267 267 269 268 259 250 251 258 258 251 246 249 257 266 271 270 266 261 255 252 254 260 265 267 267 267 269 273 277 281 285 289 293 295 294 293 292 292 293 296 299 302 306 307 307 307 308 310 312 314 315 316 317 317 317 316 316 316 315 315 314 315 316 317 319 319 320 320 320 320 320 320 320 321 321 322 322 322 322 322
264 262 263 267 269 264 260 260 258 251 249 256 260 254 243 240 247 258 267 269 264 256 250 251 254 256 258 260 262 263 265 269 273 277 281 286 291 293 292 291 291 292 294 297 300 303 306 307 306 306 308 311 314 315 315 315 316 316 315 315 314 315 315 314 314 315 316 318 320 321 321 321 321 321 321 321 321 322 323 323 324 324 324 324 323
261 263 267 270 268 261 254 253 253 251 252 256 254 244 237 241 252 260 263 260 254 244 239 244 251 253 254 258 260 262 265 270 275 280 285 289 289 289 289 290 292 295 298 301 304 305 306 306 307 310 313 314 314 313 314 314 314 314 313 314 314 315 315 316 317 318 319 320 322 322 322 322 322 322 322 323 323 323 324 325 325 325 325 325 325
263 268 271 268 263 258 257 256 253 248 246 247 245 242 244 250 254 254 252 249 244 236 234 242 250 254 256 259 261 263 265 270 276 281 285 287 287 289 292 294 296 298 301 303 304 305 306 308 311 312 312 311 311 312 313 313 313 313 314 315 316 317 318 319 319 320 321 322 323 323 323 323 323 323 323 324 324 325 326 326 326 327 327 327 326
266 267 268 264 257 254 254 252 247 243 244 246 245 246 251 253 251 247 244 240 234 233 241 249 254 256 259 261 262 264 268 272 276 280 282 285 287 291 294 296 297 300 302 303 303 305 307 309 309 308 308 309 311 312 312 313 313 315 316 317 319 320 320 321 321 322 323 323 324 324 323 324 324 324 324 325 325 326 327 327 328 328 328 328 327
262 263 265 264 257 250 248 249 251 253 257 256 251 249 250 249 243 239 238 233 230 235 243 249 254 258 260 260 261 264 267 270 273 277 280 284 288 291 293 295 298 300 301 302 304 305 306 306 306 307 309 311 312 312 313 315 316 318 319 320 321 322 322 322 322 323 324 324 324 324 324 324 324 325 325 326 327 327 328 329 329 329 329 329 328
261 263 260 251 242 236 238 245 255 263 267 264 257 252 252 249 242 238 238 236 235 238 243 248 255 260 260 258 258 261 265 269 273 278 282 285 288 290 293 295 298 299 300 301 302 303 304 306 308 310 312 313 314 315 316 318 319 320 321 322 322 322 323 323 324 324 324 324 324 324 325 325 325 325 326 327 328 329 330 330 330 330 330 330 329
Height
5888 5888 5890 5892 5893 5894 5895 5896 5896 5898 5899 5900 5901 5901 5901 5901 5902 5902 5903 5903 5903 5904 5905 5906 5907 5908 5909 5909 5909 5909 5910 5911 5911 5912 5912 5912 5911 5910 5910 5909 5909 5909 5909 5908 5907 5906 5905 5904 5903 5902 5901 5900 5899 5898 5897 5897 5896 5895 5894 5893 5892 5890 5889 5888 5887 5886 5885 5884 5884 5882 5881 5879 5878 5877 5876 5874 5873 5872 5871 5870 5869 5869 5868 5867 5865
5885 5886 5887 5888 5890 5892 5893 5894 5894 5895 5896 5897 5897 5898 5898 5898 5899 5899 5900 5901 5901 5901 5902 5903 5904 5906 5906 5906 5906 5907 5907 5908 5908 5908 5908 5908 5908 5908 5907 5907 5907 5906 5906 5905 5904 5904 5903 5901 5900 5899 5898 5897 5896 5895 5894 5893 5893 5892 5891 5890 5889 5888 5887 5886 5884 5883 5882 5881 5881 5880 5878 5877 5876 5875 5874 5872 5871 5870 5869 5868 5868 5867 5865 5864 5863
5881 5883 5884 5885 5887 5889 5890 5891 5892 5892 5893 5893 5894 5894 5894 5895 5896 5896 5897 5898 5899 5899 5900 5901 5902 5904 5904 5904 5904 5905 5905 5905 5906 5906 5905 5905 5905 5905 5905 5905 5905 5904 5903 5902 5902 5900 5899 5898 5897 5897 5895 5894 5893 5892 5891 5890 5889 5889 5889 5888 5887 5886 5885 5884 5882 5881 5879 5879 5878 5877 5876 5875 5874 5873 5872 5870 5869 5868 5867 5866 5865 5864 5863 5862 5861
5877 5878 5880 5882 5884 5886 5887 5887 5888 5888 5889 5889 5890 5890 5890 5891 5891 5891 5893 5896 5897 5898 5900 5900 5901 5902 5902 5902 5902 5903 5904 5904 5904 5903 5903 5903 5903 5903 5903 5902 5902 5902 5901 5900 5899 5898 5896 5895 5894 5894 5892 5892 5891 5890 5889 5888 5887 5886 5886 5885 5885 5884 5883 5882 5880 5879 5878 5877 5876 5875 5874 5873 5871 5870 5870 5869 5868 5866 5865 5864 5863 5862 5861 5860 5859
5871 5873 5875 5877 5880 5882 5883 5883 5884 5884 5885 5885 5886 5886 5885 5886 5886 5888 5893 5896 5896 5899 5901 5900 5899 5899 5899 5900 5901 5902 5902 5902 5902 5901 5900 5900 5901 5901 5900 5900 5900 5899 5898 5897 5896 5895 5894 5893 5892 5891 5890 5889 5889 5888 5886 5885 5884 5884 5883 5883 5882 5881 5881 5880 5879 5878 5877 5876 5875 5873 5872 5871 5870 5869 5868 5867 5866 5865 5864 5862 5861 5860 5859 5858 5857
5867 5868 5870 5872 5875 5877 5878 5879 5879 5880 5880 5881 5881 5880 5880 5882 5884 5887 5894 5896 5895 5898 5900 5897 5896 5895 5896 5898 5899 5900 5900 5900 5899 5899 5898 5899 5899 5899 5898 5898 5897 5897 5896 5895 5894 5892 5891 5890 5889 5888 5887 5887 5886 5885 5884 5883 5882 5882 5881 5881 5880 5879 5879 5878 5878 5877 5876 5874 5873 5872 5871 5869 5868 5867 5866 5865 5864 5863 5862 5861 5860 5859 5857 5856 5855
5864 5864 5866 5868 5870 5873 5874 5875 5875 5875 5876 5876 5876 5875 5876 5881 5883 5885 5890 5894 5894 5894 5895 5893 5893 5894 5895 5896 5896 5897 5897 5897 5897 5896 5897 5897 5897 5896 5896 5896 5895 5894 5894 5893 5892 5890 5889 5888 5887 5886 5885 5884 5884 5883 5882 5881 5881 5880 5879 5879 5878 5877 5877 5876 5876 5875 5874 5873 5871 5870 5869 5868 5867 5866 5865 5864 5863 5862 5860 5859 5858 5857 5855 5854 5852
5861 5861 5863 5864 5866 5868 5869 5870 5871 5871 5871 5871 5872 5872 5874 5878 5881 5882 5886 5889 5889 5888 5889 5890 5890 5892 5893 5893 5893 5894 5894 5894 5894 5894 5894 5895 5894 5894 5894 5893 5893 5892 5891 5891 5889 5888 5887 5886 5885 5884 5883 5882 5882 5881 5880 5879 5879 5878 5878 5877 5876 5875 5875 5874 5874 5873 5872 5871 5870 5869 5867 5866 5865 5864 5863 5861 5860 5859 5858 5857 5855 5854 5853 5851 5850
5858 5858 5859 5861 5862 5863 5863 5864 5865 5866 5867 5869 5869 5870 5872 5875 5879 5881 5883 5884 5884 5885 5887 5888 5888 5889 5890 5891 5891 5891 5891 5892 5892 5892 5892 5892 5891 5891 5891 5890 5890 5890 5889 5888 5887 5886 5884 5884 5883 5882 5881 5880 5880 5879 5878 5877 5877 5876 5876 5875 5874 5874 5873 5873 5872 5871 5870 5869 5868 5866 5865 5864 5862 5861 5860 5859 5857 5856 5855 5854 5853 5852 5850 5849 5848
5854 5855 5856 5857 5858 5857 5856 5857 5858 5861 5864 5867 5868 5869 5872 5875 5877 5878 5878 5879 5880 5882 5884 5885 5885 5886 5887 5887 5887 5887 5887 5888 5889 5889 5889 5889 5888 5888 5887 5887 5887 5887 5886 5885 5884 5883 5882 5882 5881 5880 5880 5879 5878 5877 5876 5876 5875 5875 5874 5873 5873 5872 5871 5871 5870 5869 5868 5867 5866 5864 5863 5861 5860 5858 5857 5856 5855 5854 5853 5851 5850 5849 5848 5846 5845
5850 5850 5851 5852 5852 5851 5849 5850 5853 5857 5861 5865 5868 5869 5871 5872 5872 5872 5874 5876 5878 5879 5880 5881 5882 5882 5883 5883 5883 5883 5884 5885 5886 5886 5886 5886 5885 5885 5885 5885 5884 5884 5883 5883 5882 5881 5880 5880 5879 5879 5878 5877 5876 5875 5875 5874 5874 5873 5872 5872 5871 5870 5869 5869 5868 5867 5866 5865 5864 5862 5861 5859 5858 5856 5855 5854 5853 5851 5850 5848 5847 5846 5844 5842 5841
5846 5845 5846 5846 5846 5845 5846 5849 5852 5855 5859 5863 5865 5866 5866 5867 5867 5868 5870 5872 5874 5875 5876 5877 5877 5878 5879 5880 5880 5880 5881 5882 5882 5883 5883 5883 5882 5882 5882 5882 5882 5882 5881 5881 5880 5879 5878 5878 5877 5877 5876 5875 5875 5874 5874 5873 5873 5872 5871 5870 5869 5868 5868 5867 5866 5865 5864 5863 5862 5860 5858 5857 5855 5854 5853 5851 5850 5848 5847 5845 5843 5842 5840 5839 5837
5843 5842 5842 5840 5840 5842 5845 5848 5851 5854 5858 5860 5861 5862 5862 5862 5863 5864 5866 5868 5870 5871 5872 5873 5873 5874 5875 5875 5876 5877 5878 5879 5879 5879 5880 5880 5880 5880 5880 5880 5880 5880 5879 5879 5878 5877 5877 5877 5876 5875 5875 5874 5873 5873 5873 5872 5872 5871 5870 5868 5868 5867 5866 5865 5864 5863 5862 5860 5859 5857 5855 5854 5852 5851 5850 5848 5846 5845 5843 5842 5840 5838 5836 5835 5834
5841 5840 5838 5836 5837 5840 5844 5848 5852 5855 5855 5853 5854 5857 5858 5859 5860 5862 5864 5865 5867 5868 5868 5869 5870 5870 5871 5872 5873 5873 5874 5875 5875 5876 5876 5877 5877 5877 5877 5877 5878 5878 5877 5877 5876 5876 5876 5875 5874 5874 5873 5872 5872 5872 5871 5871 5871 5869 5868 5867 5866 5865 5864 5862 5861 5860 5859 5857 5855 5853 5852 5850 5849 5847 5846 5844 5843 5841 5840 5838 5836 5834 5832 5831 5830
5840 5839 5837 5837 5838 5841 5845 5849 5851 5850 5848 5847 5850 5854 5856 5858 5859 5860 5862 5863 5864 5865 5866 5866 5866 5867 5868 5868 5869 5869 5870 5871 5872 5872 5873 5874 5874 5874 5874 5875 5875 5875 5875 5874 5874 5874 5874 5873 5872 5872 5871 5871 5870 5870 5869 5869 5869 5867 5866 5865 5864 5863 5861 5860 5858 5856 5855 5854 5852 5850 5848 5846 5845 5843 5842 5840 5839 5837 5836 5834 5832 5830 5828 5827 5825
5836 5835 5836 5838 5840 5842 5844 5845 5846 5845 5846 5847 5849 5852 5854 5856 5857 5858 5859 5861 5862 5863 5863 5863 5864 5864 5865 5865 5866 5866 5867 5868 5869 5870 5870 5870 5870 5871 5872 5872 5872 5872 5872 5872 5872 5872 5871 5871 5870 5869 5869 5868 5868 5867 5867 5867 5866 5865 5864 5862 5861 5860 5858 5857 5855 5853 5851 5850 5848 5846 5844 5842 5841 5839 5838 5836 5835 5833 5832 5830 5828 5826 5824 5822 5820
5833 5832 5832 5834 5836 5837 5837 5839 5841 5843 5844 5845 5847 5848 5850 5852 5853 5855 5856 5858 5859 5860 5860 5860 5860 5861 5862 5863 5863 5864 5865 5866 5867 5867 5867 5868 5868 5869 5870 5870 5869 5869 5869 5869 5870 5869 5868 5868 5867 5867 5866 5866 5865 5864 5864 5863 5863 5862 5861 5859 5858 5856 5854 5853 5851 5849 5847 5846 5844 5842 5840 5839 5837 5835 5834 5832 5831 5829 5827 5825 5823 5821 5819 5817 5815
5830 5828 5827 5827 5829 5831 5833 5836 5838 5840 5841 5842 5843 5844 5845 5847 5849 5850 5852 5854 5855 5856 5856 5856 5857 5858 5859 5860 5861 5861 5862 5863 5864 5865 5865 5866 5867 5867 5868 5868 5867 5867 5867 5867 5868 5867 5866 5866 5865 5864 5864 5863 5862 5861 5860 5860 5859 5858 5857 5855 5854 5852 5850 5848 5847 5845 5844 5842 5840 5838 5837 5835 5833 5831 5830 5828 5826 5825 5822 5820 5818 5816 5815 5813 5811
5826 5825 5824 5825 5827 5830 5833 5835 5837 5839 5840 5840 5840 5841 5843 5844 5845 5846 5848 5850 5851 5851 5851 5851 5852 5854 5855 5856 5857 5859 5860 5861 5862 5862 5863 5864 5865 5865 5865 5865 5864 5864 5864 5865 5865 5865 5864 5863 5863 5862 5861 5860 5859 5858 5857 5857 5856 5854 5853 5851 5849 5847 5846 5844 5843 5841 5840 5838 5836 5834 5832 5830 5829 5827 5825 5823 5822 5820 5818 5816 5814 5812 5810 5808 5806
5824 5824 5825 5826 5828 5830 5832 5834 5835 5836 5837 5837 5838 5839 5841 5842 5843 5845 5846 5847 5848 5848 5848 5848 5850 5851 5852 5853 5854 5856 5857 5858 5858 5859 5860 5861 5862 5862 5862 5862 5861 5861 5862 5863 5863 5862 5862 5861 5860 5859 5858 5857 5856 5855 5854 5854 5852 5851 5848 5846 5844 5843 5841 5840 5839 5837 5835 5833 5832 5830 5827 5825 5824 5822 5820 5818 5816 5814 5812 5810 5809 5807 5805 5802 5800
5823 5825 5826 5827 5829 5830 5831 5832 5832 5832 5833 5834 5836 5838 5839 5840 5841 5843 5845 5846 5845 5846 5847 5848 5850 5850 5850 5850 5851 5852 5853 5854 5855 5856 5857 5858 5859 5859 5859 5859 5859 5859 5859 5860 5860 5859 5859 5858 5857 5856 5855 5854 5853 5852 5851 5850 5849 5847 5844 5842 5840 5838 5837 5836 5834 5832 5830 5829 5827 5825 5823 5820 5818 5817 5815 5813 5811 5809 5807 5805 5803 5801 5799 5797 5794
5822 5824 5824 5825 5826 5828 5829 5830 5830 5831 5832 5834 5836 5837 5837 5838 5839 5840 5842 5842 5842 5843 5846 5848 5849 5849 5848 5848 5849 5850 5851 5852 5853 5854 5855 5856 5857 5857 5857 5858 5858 5857 5857 5857 5857 5857 5856 5855 5854 5854 5852 5851 5850 5849 5848 5847 5845 5843 5841 5838 5836 5835 5833 5832 5830 5828 5826 5824 5822 5820 5818 5816 5814 5812 5810 5808 5806 5803 5801 5799 5797 5795 5793 5790 5788
5821 5822 5823 5823 5824 5826 5827 5828 5829 5832 5833 5833 5834 5834 5835 5836 5838 5839 5840 5839 5839 5841 5844 5845 5846 5847 5847 5847 5847 5848 5849 5850 5851 5852 5853 5853 5854 5855 5855 5856 5856 5856 5855 5855 5854 5854 5853 5852 5852 5851 5850 5848 5847 5845 5844 5843 5841 5839 5837 5835 5833 5831 5830 5828 5826 5824 5822 5820 5818 5815 5813 5811 5809 5807 5805 5803 5801 5799 5797 5794 5792 5789 5787 5784 5782
5819 5820 5821 5822 5823 5825 5826 5826 5827 5831 5832 5831 5831 5831 5833 5835 5837 5838 5838 5838 5839 5841 5843 5843 5844 5845 5845 5845 5846 5846 5847 5848 5849 5850 5850 5851 5851 5852 5853 5854 5854 5854 5853 5852 5852 5851 5850 5850 5849 5848 5847 5845 5843 5842 5840 5839 5837 5835 5833 5831 5829 5828 5826 5824 5822 5820 5818 5816 5813 5811 5809 5807 5805 5802 5800 5798 5796 5794 5792 5789 5787 5784 5780 5777 5775
5818 5819 5820 5821 5822 5823 5824 5824 5826 5829 5829 5829 5828 5828 5830 5833 5835 5835 5836 5837 5839 5841 5841 5842 5843 5843 5844 5844 5845 5845 5846 5846 5847 5847 5848 5848 5849 5850 5851 5851 5851 5850 5850 5850 5849 5848 5847 5847 5846 5845 5844 5842 5840 5839 5837 5835 5834 5832 5830 5827 5825 5823 5821 5819 5817 5815 5813 5811 5809 5806 5804 5802 5800 5798 5796 5793 5791 5788 5786 5784 5781 5778 5774 5771 5768
5818 5819 5819 5820 5821 5822 5823 5824 5826 5828 5828 5828 5827 5827 5829 5831 5832 5833 5835 5837 5838 5839 5840 5841 5842 5842 5843 5843 5844 5844 5844 5845 5845 5846 5846 5847 5847 5847 5848 5848 5848 5848 5847 5847 5846 5845 5844 5843 5842 5842 5840 5838 5837 5835 5834 5832 5831 5828 5826 5824 5821 5819 5817 5815 5812 5810 5808 5806 5803 5801 5799 5797 5795 5793 5790 5788 5785 5783 5780 5777 5774 5772 5768 5765 5762
5818 5819 5819 5820 5820 5821 5822 5824 5826 5827 5828 5828 5827 5827 5828 5829 5830 5831 5833 5834 5836 5837 5838 5839 5839 5840 5840 5841 5842 5842 5843 5843 5843 5844 5844 5844 5844 5844 5845 5845 5845 5845 5844 5844 5843 5841 5840 5839 5838 5838 5836 5834 5833 5832 5830 5829 5827 5825 5822 5820 5817 5815 5812 5810 5808 5805 5803 5801 5798 5796 5794 5792 5789 5787 5785 5782 5780 5777 5774 5771 5768 5765 5762 5759 5755
5818 5818 5818 5819 5819 5820 5821 5823 5825 5827 5827 5827 5827 5827 5827 5828 5829 5830 5831 5832 5833 5834 5835 5835 5836 5837 5838 5839 5839 5840 5840 5841 5841 5841 5841 5841 5841 5841 5842 5842 5842 5841 5841 5840 5839 5837 5836 5835 5834 5833 5832 5831 5829 5828 5826 5825 5823 5821 5818 5816 5813 5811 5809 5806 5804 5802 5799 5797 5794 5792 5790 5787 5784 5782 5779 5777 5774 5771 5768 5765 5761 5758 5755 5752 5749
5816 5817 5817 5817 5818 5819 5821 5823 5824 5825 5825 5826 5827 5827 5828 5828 5828 5828 5829 5829 5830 5831 5831 5832 5833 5834 5836 5837 5837 5838 5838 5838 5839 5839 5839 5839 5838 5839 5839 5839 5838 5837 5837 5836 5835 5833 5832 5831 5829 5828 5827 5826 5825 5824 5822 5820 5818 5816 5814 5811 5809 5806 5804 5802 5800 5798 5795 5793 5790 5788 5785 5782 5779 5776 5773 5771 5768 5765 5761 5758 5755 5752 5749 5745 5742
5814 5814 5815 5816 5816 5818 5819 5821 5822 5821 5822 5823 5825 5826 5827 5827 5827 5826 5826 5826 5826 5827 5828 5829 5831 5832 5833 5834 5834 5835 5835 5835 5836 5836 5836 5836 5835 5836 5836 5835 5834 5834 5833 5832 5831 5829 5828 5827 5826 5825 5823 5821 5820 5819 5818 5816 5814 5812 5809 5807 5805 5802 5799 5797 5795 5793 5791 5788 5785 5783 5780 5777 5774 5771 5768 5765 5761 5758 5755 5752 5748 5745 5742 5739 5735
5812 5812 5813 5814 5815 5815 5817 5818 5819 5819 5819 5821 5823 5824 5825 5826 5826 5825 5824 5824 5824 5824 5825 5826 5828 5829 5830 5830 5831 5832 5832 5833 5833 5833 5833 5832 5832 5832 5832 5831 5831 5830 5829 5828 5827 5826 5825 5824 5822 5821 5819 5817 5816 5815 5813 5811 5809 5807 5805 5803 5800 5798 5795 5793 5790 5788 5786 5783 5780 5777 5775 5771 5769 5766 5762 5759 5755 5752 5749 5745 5742 5739 5735 5732 5729
5811 5811 5811 5812 5813 5814 5815 5816 5817 5818 5818 5820 5821 5822 5824 5824 5824 5823 5823 5822 5822 5822 5823 5824 5825 5826 5827 5828 5828 5829 5829 5830 5830 5830 5829 5829 5829 5829 5829 5828 5827 5826 5825 5824 5823 5822 5821 5820 5818 5816 5814 5813 5812 5810 5808 5806 5804 5802 5800 5798 5795 5793 5791 5788 5786 5783 5780 5777 5774 5771 5769 5766 5763 5760 5756 5753 5749 5746 5743 5739 5736 5732 5729 5725 5722
5810 5810 5810 5810 5811 5812 5814 5815 5816 5816 5817 5818 5819 5820 5821 5822 5822 5822 5821 5820 5820 5820 5821 5822 5823 5824 5825 5825 5826 5826 5826 5826 5826 5826 5826 5826 5826 5826 5825 5824 5823 5822 5821 5821 5819 5818 5817 5815 5813 5811 5810 5809 5808 5806 5803 5801 5799 5797 5795 5793 5791 5789 5786 5784 5781 5778 5775 5772 5768 5765 5762 5759 5756 5753 5750 5746 5743 5739 5736 5732 5729 5725 5722 5718 5714
5808 5809 5809 5810 5810 5811 5812 5813 5814 5814 5815 5815 5816 5817 5818 5819 5820 5820 5820 5819 5819 5819 5820 5820 5821 5821 5822 5822 5823 5823 5823 5823 5823 5822 5822 5822 5822 5822 5821 5820 5819 5818 5817 5817 5815 5814 5812 5810 5809 5808 5806 5805 5803 5801 5799 5797 5795 5793 5791 5789 5786 5784 5782 5779 5776 5773 5770 5766 5763 5759 5756 5753 5749 5746 5743 5739 5736 5732 5729 5726 5722 5718 5714 5710 5706
5807 5808 5808 5809 5810 5811 5811 5812 5813 5813 5813 5813 5814 5815 5816 5817 5818 5818 5818 5818 5818 5818 5818 5817 5818 5818 5818 5819 5819 5819 5819 5819 5818 5818 5818 5818 5818 5817 5817 5816 5815 5814 5813 5813 5811 5810 5808 5806 5805 5804 5802 5800 5798 5796 5794 5792 5791 5789 5787 5784 5782 5779 5777 5774 5771 5767 5764 5761 5757 5754 5750 5747 5743 5740 5737 5733 5730 5726 5723 5719 5715 5711 5707 5703 5699
5806 5806 5807 5808 5809 5810 5811 5811 5812 5812 5811 5812 5812 5813 5814 5814 5815 5816 5816 5816 5816 5815 5815 5814 5814 5814 5815 5815 5814 5814 5814 5814 5814 5814 5813 5813 5814 5814 5813 5812 5811 5810 5809 5808 5807 5805 5804 5802 5801 5799 5797 5795 5793 5791 5790 5788 5786 5784 5782 5780 5777 5774 5771 5768 5765 5762 5758 5755 5752 5748 5745 5741 5738 5735 5731 5727 5724 5720 5716 5712 5708 5704 5700 5696 5691
5803 5804 5804 5805 5805 5807 5808 5809 5809 5809 5809 5809 5810 5810 5811 5812 5812 5812 5812 5812 5812 5811 5811 5811 5811 5811 5811 5810 5810 5810 5810 5810 5810 5809 5809 5810 5810 5810 5809 5808 5807 5806 5805 5805 5803 5801 5799 5798 5796 5795 5793 5791 5789 5787 5785 5784 5782 5780 5777 5775 5772 5769 5765 5762 5759 5756 5753 5750 5747 5743 5740 5736 5732 5729 5725 5721 5717 5713 5709 5705 5701 5697 5693 5688 5684
5799 5800 5801 5802 5802 5803 5804 5805 5806 5806 5806 5806 5806 5807 5808 5808 5808 5808 5808 5807 5807 5807 5807 5807 5807 5807 5807 5807 5806 5806 5806 5806 5806 5806 5806 5806 5806 5805 5804 5803 5802 5801 5801 5800 5799 5797 5795 5794 5792 5790 5788 5786 5785 5783 5781 5779 5777 5775 5772 5769 5766 5762 5759 5756 5753 5750 5747 5744 5741 5738 5734 5730 5727 5723 5719 5715 5711 5707 5703 5699 5694 5689 5685 5680 5675
5795 5797 5799 5800 5801 5801 5802 5802 5802 5802 5803 5802 5802 5803 5804 5804 5804 5804 5804 5804 5804 5804 5804 5804 5804 5804 5804 5804 5803 5803 5803 5803 5803 5803 5803 5802 5802 5802 5800 5799 5797 5797 5796 5795 5794 5793 5791 5790 5788 5786 5785 5783 5781 5779 5777 5775 5772 5769 5766 5763 5759 5757 5754 5751 5748 5745 5742 5738 5735 5731 5728 5724 5720 5716 5712 5708 5704 5700 5695 5690 5686 5681 5677 5672 5668
5794 5797 5798 5798 5798 5799 5798 5798 5798 5799 5800 5800 5799 5799 5800 5801 5801 5801 5801 5801 5801 5801 5801 5801 5801 5801 5801 5801 5800 5800 5800 5801 5801 5800 5799 5798 5798 5798 5797 5795 5793 5792 5792 5791 5790 5789 5788 5786 5785 5783 5781 5779 5777 5775 5772 5770 5767 5764 5761 5758 5755 5752 5750 5747 5743 5740 5736 5732 5728 5725 5721 5717 5714 5710 5705 5701 5697 5692 5688 5683 5679 5674 5670 5666 5662
5794 5795 5796 5795 5794 5794 5794 5793 5793 5794 5796 5796 5797 5796 5796 5797 5797 5797 5798 5798 5798 5798 5797 5798 5798 5798 5798 5798 5798 5798 5798 5797 5797 5795 5795 5795 5795 5794 5793 5791 5790 5789 5789 5788 5787 5785 5784 5782 5781 5779 5777 5775 5773 5770 5768 5765 5762 5759 5756 5754 5751 5748 5745 5741 5738 5734 5730 5726 5723 5719 5716 5712 5708 5704 5699 5695 5691 5686 5682 5678 5674 5669 5665 5660 5655
5790 5790 5791 5791 5790 5791 5790 5790 5789 5789 5790 5791 5792 5793 5794 5794 5794 5794 5795 5795 5795 5795 5794 5794 5795 5795 5795 5795 5795 5794 5794 5793 5792 5791 5791 5791 5791 5791 5789 5788 5787 5787 5786 5785 5784 5782 5780 5779 5777 5775 5773 5771 5768 5765 5763 5760 5758 5755 5752 5749 5746 5742 5739 5735 5732 5728 5725 5721 5718 5714 5711 5707 5702 5698 5694 5690 5686 5681 5677 5673 5668 5663 5658 5653 5647
5786 5787 5788 5787 5786 5786 5786 5786 5787 5786 5787 5787 5788 5789 5792 5792 5791 5791 5791 5792 5792 5791 5791 5791 5791 5791 5791 5791 5791 5791 5790 5790 5789 5788 5788 5788 5788 5788 5786 5785 5784 5783 5782 5781 5780 5778 5777 5775 5773 5771 5769 5766 5764 5761 5759 5756 5753 5751 5747 5744 5741 5737 5734 5730 5727 5724 5721 5717 5713 5710 5706 5701 5697 5693 5689 5685 5680 5676 5671 5666 5661 5656 5651 5645 5639
5784 5785 5784 5782 5782 5782 5783 5783 5784 5783 5783 5784 5784 5786 5788 5789 5788 5787 5787 5788 5787 5787 5787 5787 5787 5787 5787 5788 5788 5788 5787 5786 5786 5785 5784 5784 5784 5784 5783 5782 5781 5780 5779 5777 5776 5774 5772 5771 5769 5766 5764 5762 5760 5757 5755 5752 5749 5746 5742 5739 5736 5733 5730 5727 5724 5721 5717 5713 5709 5705 5701 5696 5692 5688 5683 5678 5674 5669 5664 5659 5654 5648 5643 5637 5631
5781 5780 5779 5779 5780 5780 5780 5780 5781 5781 5780 5781 5782 5782 5783 5783 5783 5783 5783 5783 5783 5784 5784 5784 5784 5784 5784 5784 5784 5784 5784 5783 5783 5782 5781 5781 5780 5780 5779 5778 5777 5776 5775 5773 5772 5770 5768 5767 5765 5762 5760 5758 5756 5753 5750 5747 5744 5741 5738 5735 5733 5730 5727 5723 5720 5717 5713 5709 5705 5700 5696 5691 5686 5682 5677 5672 5667 5663 5657 5652 5647 5641 5635 5629 5623
5777 5776 5776 5776 5777 5777 5776 5777 5777 5777 5778 5778 5778 5779 5779 5779 5778 5779 5779 5779 5780 5780 5780 5780 5781 5781 5781 5781 5781 5781 5780 5780 5779 5779 5778 5778 5777 5777 5776 5775 5774 5772 5771 5769 5768 5766 5764 5763 5761 5759 5756 5754 5751 5748 5746 5743 5740 5737 5735 5732 5729 5726 5723 5719 5715 5711 5707 5703 5699 5694 5690 5685 5680 5675 5671 5666 5661 5656 5651 5645 5640 5634 5628 5622 5616
5773 5773 5774 5773 5773 5773 5773 5773 5773 5774 5775 5775 5775 5775 5775 5775 5775 5775 5776 5776 5776 5776 5777 5777 5778 5778 5778 5777 5777 5777 5776 5776 5775 5775 5774 5774 5774 5774 5773 5772 5771 5769 5767 5765 5764 5762 5761 5759 5756 5754 5751 5749 5747 5744 5742 5739 5736 5734 5731 5728 5724 5721 5717 5713 5709 5705 5701 5697 5692 5688 5683 5679 5674 5669 5664 5659 5654 5649 5644 5639 5633 5627 5621 5615 5608
5771 5771 5772 5772 5771 5771 5771 5771 5771 5771 5772 5771 5771 5771 5772 5772 5772 5772 5772 5772 5772 5773 5774 5774 5774 5774 5774 5774 5774 5773 5772 5772 5771 5771 5771 5771 5771 5771 5770 5768 5767 5765 5764 5762 5760 5759 5757 5754 5752 5750 5748 5746 5743 5741 5738 5735 5733 5730 5726 5723 5719 5715 5711 5707 5703 5699 5694 5690 5686 5681 5677 5672 5668 5663 5658 5653 5648 5643 5638 5632 5626 5620 5614 5607 5601
5770 5769 5769 5770 5770 5770 5769 5769 5769 5768 5768 5767 5768 5768 5768 5769 5769 5769 5769 5769 5770 5770 5770 5771 5770 5770 5770 5770 5769 5769 5769 5768 5768 5768 5768 5768 5768 5767 5766 5765 5763 5762 5760 5759 5757 5755 5753 5751 5749 5747 5745 5742 5739 5737 5734 5731 5728 5725 5721 5717 5713 5709 5705 5701 5697 5693 5689 5684 5680 5675 5671 5666 5662 5657 5652 5648 5642 5637 5631 5626 5619 5613 5607 5601 5594
5767 5767 5767 5768 5768 5768 5767 5766 5766 5765 5765 5765 5765 5766 5765 5765 5765 5765 5765 5766 5766 5767 5767 5767 5767 5766 5766 5766 5765 5765 5765 5765 5765 5765 5765 5765 5764 5764 5763 5762 5760 5759 5757 5755 5753 5751 5749 5748 5746 5743 5740 5738 5735 5732 5729 5726 5723 5719 5715 5711 5707 5703 5699 5696 5692 5688 5683 5679 5674 5670 5665 5660 5656 5651 5647 5642 5637 5631 5625 5619 5613 5607 5601 5595 5589
5764 5764 5765 5765 5765 5765 5764 5763 5763 5763 5763 5762 5762 5762 5761 5761 5761 5762 5762 5762 5763 5762 5763 5763 5763 5763 5762 5762 5761 5761 5761 5762 5762 5762 5762 5761 5761 5760 5760 5759 5757 5756 5754 5752 5750 5748 5746 5744 5741 5739 5736 5733 5730 5727 5724 5721 5717 5713 5709 5706 5702 5698 5694 5690 5686 5682 5678 5673 5669 5664 5659 5655 5650 5646 5641 5636 5631 5625 5619 5613 5607 5601 5595 5589 5583